York, NE

9:14 AM CST on December 07, 2016 (GMT -0600)
York Municipal

Weather History for KJYR - November, 2012

Change the Weather History Date:

Tuesday, November 6, 2012

  Actual Average Record
Temperature  
Mean Temperature 44 °F -  
Max Temperature 57 °F 53 °F 83 °F (1980)
Min Temperature 32 °F 31 °F 6 °F (1959)
Degree Days  
Heating Degree Days 20    
Moisture  
Dew Point 28 °F    
Average Humidity 60    
Maximum Humidity 100    
Minimum Humidity 23    
Precipitation  
Precipitation 0.00 in - - ()
Sea Level Pressure  
Sea Level Pressure 30.07 in    
Wind  
Wind Speed 14 mph (NW)    
Max Wind Speed 28 mph    
Max Gust Speed 38 mph    
Visibility 10 miles    
Events Rain    
Averages and records for this station are not official NWS values.
T = Trace of Precipitation, MM = Missing Value Source: NWS Daily Summary

Daily Weather History Graph

Daily Weather History Graph

Search for Another Location

Airport or City:

Trip Planner

Search our weather history database for the weather conditions in past years. The results will help you decide how hot, cold, wet, or windy it might be!

Date:

Astronomy

Nov. 06, 2012 Rise Set
Actual Time 7:07 AM CST 5:20 PM CST
Civil Twilight 6:38 AM CST 5:48 PM CST
Nautical Twilight 6:06 AM CST 6:21 PM CST
Astronomical Twilight 5:33 AM CST 6:53 PM CST
Moon No Moon Rise 1:00 PM CST (11/6)
Length of Visible Light 11h 10m
Length of Day
10h 12m
Waning Gibbous, 53% of the Moon is Illuminated
Nov 6
Waning Gibbous
Nov 6
Last Quarter
Nov 13
New
Nov 20
First Quarter
Nov 28
Full

Hourly Weather History & Observations

Time (CST) Temp. Windchill Dew Point Humidity Pressure Visibility Wind Dir Wind Speed Gust Speed Precip Events Conditions
12:15 AM 37.4 °F 29.8 °F 37.4 °F 100% 30.03 in 8.0 mi SSW 11.5 mph - N/A Rain Light Rain
12:35 AM 37.4 °F 29.8 °F 37.4 °F 100% 30.02 in 9.0 mi SSW 11.5 mph - N/A   Overcast
12:55 AM 37.4 °F 30.3 °F 37.4 °F 100% 30.01 in 9.0 mi SSW 10.4 mph - N/A   Partly Cloudy
1:15 AM 37.4 °F 30.3 °F 37.4 °F 100% 30.02 in 8.0 mi SSW 10.4 mph - N/A   Clear
1:35 AM 35.6 °F 28.0 °F 35.6 °F 100% 30.02 in 8.0 mi SSW 10.4 mph - N/A   Scattered Clouds
1:55 AM 35.6 °F 28.6 °F 35.6 °F 100% 30.02 in 9.0 mi SSW 9.2 mph - N/A   Mostly Cloudy
2:35 AM 37.4 °F 31.4 °F 37.4 °F 100% 30.04 in 9.0 mi West 8.1 mph - N/A   Overcast
2:55 AM 37.4 °F 29.8 °F 37.4 °F 100% 30.00 in 9.0 mi SW 11.5 mph - N/A   Overcast
3:35 AM 39.2 °F 29.6 °F 39.2 °F 100% 29.95 in 10.0 mi SW 19.6 mph 27.6 mph N/A   Overcast
3:55 AM 39.2 °F 29.3 °F 39.2 °F 100% 29.95 in 10.0 mi WSW 20.7 mph 27.6 mph N/A   Overcast
4:15 AM 39.2 °F 30.8 °F 39.2 °F 100% 29.97 in 10.0 mi WSW 15.0 mph 20.7 mph N/A   Mostly Cloudy
4:35 AM 39.2 °F 31.2 °F 39.2 °F 100% 29.97 in 10.0 mi West 13.8 mph - N/A   Scattered Clouds
4:55 AM 39.2 °F 30.8 °F 39.2 °F 100% 29.98 in 10.0 mi West 15.0 mph - N/A   Partly Cloudy
5:15 AM 39.2 °F 30.8 °F 39.2 °F 100% 29.99 in 10.0 mi West 15.0 mph - N/A   Partly Cloudy
5:35 AM 39.2 °F 31.2 °F 39.2 °F 100% 30.00 in 10.0 mi West 13.8 mph - N/A   Mostly Cloudy
6:35 AM 39.2 °F 31.2 °F 39.2 °F 100% 30.02 in 10.0 mi NW 13.8 mph - N/A   Clear
6:55 AM 41.0 °F 33.5 °F 41.0 °F 100% 30.02 in 10.0 mi NW 13.8 mph - N/A   Clear
7:15 AM 41.0 °F 33.1 °F 41.0 °F 100% 30.03 in 10.0 mi NNW 15.0 mph - N/A   Clear
7:35 AM 41.0 °F 33.1 °F 39.2 °F 93% 30.04 in 10.0 mi NNW 15.0 mph - N/A   Clear
8:15 AM 44.6 °F 37.2 °F 37.4 °F 76% 30.06 in 10.0 mi NNW 17.3 mph 25.3 mph N/A   Clear
8:35 AM 44.6 °F 37.4 °F 37.4 °F 76% 30.07 in 10.0 mi NNW 16.1 mph 21.9 mph N/A   Clear
8:55 AM 46.4 °F 39.5 °F 35.6 °F 66% 30.08 in 10.0 mi NNW 17.3 mph 28.8 mph N/A   Clear
9:15 AM 48.2 °F - 33.8 °F 58% 30.09 in 10.0 mi NNW 19.6 mph 27.6 mph N/A   Clear
9:35 AM 48.2 °F - 32.0 °F 54% 30.09 in 10.0 mi NNW 20.7 mph 27.6 mph N/A   Clear
9:55 AM 50.0 °F - 30.2 °F 47% 30.09 in 10.0 mi NNW 20.7 mph 28.8 mph N/A   Clear
10:15 AM 50.0 °F - 28.4 °F 43% 30.09 in 10.0 mi NNW 23.0 mph 29.9 mph N/A   Clear
10:35 AM 51.8 °F - 26.6 °F 38% 30.09 in 10.0 mi NNW 21.9 mph 31.1 mph N/A   Clear
10:55 AM 53.6 °F - 26.6 °F 35% 30.10 in 10.0 mi NNW 16.1 mph 28.8 mph N/A   Clear
11:35 AM 55.4 °F - 24.8 °F 31% 30.09 in 10.0 mi NNW 23.0 mph 29.9 mph N/A   Clear
11:55 AM 55.4 °F - 24.8 °F 31% 30.09 in 10.0 mi North 17.3 mph 29.9 mph N/A   Clear
12:15 PM 55.4 °F - 24.8 °F 31% 30.08 in 10.0 mi NNW 21.9 mph 32.2 mph N/A   Clear
12:35 PM 55.4 °F - 26.6 °F 33% 30.08 in 10.0 mi NNW 21.9 mph 31.1 mph N/A   Clear
12:55 PM 57.2 °F - 24.8 °F 29% 30.07 in 10.0 mi NW 24.2 mph 31.1 mph N/A   Clear
1:15 PM 57.2 °F - 24.8 °F 29% 30.07 in 10.0 mi NNW 18.4 mph 32.2 mph N/A   Clear
1:35 PM 57.2 °F - 23.0 °F 27% 30.06 in 10.0 mi NW 26.5 mph 38.0 mph N/A   Clear
1:55 PM 57.2 °F - 23.0 °F 27% 30.05 in 10.0 mi NNW 24.2 mph 38.0 mph N/A   Clear
2:35 PM 57.2 °F - 21.2 °F 25% 30.05 in 10.0 mi NNW 18.4 mph 29.9 mph N/A   Clear
2:55 PM 57.2 °F - 21.2 °F 25% 30.05 in 10.0 mi NNW 27.6 mph 35.7 mph N/A   Clear
3:15 PM 57.2 °F - 21.2 °F 25% 30.05 in 10.0 mi NNW 21.9 mph 31.1 mph N/A   Clear
3:35 PM 57.2 °F - 19.4 °F 23% 30.05 in 10.0 mi NNW 20.7 mph 31.1 mph N/A   Clear
3:55 PM 57.2 °F - 19.4 °F 23% 30.06 in 10.0 mi NNW 19.6 mph 27.6 mph N/A   Clear
4:15 PM 57.2 °F - 19.4 °F 23% 30.06 in 10.0 mi NNW 19.6 mph 31.1 mph N/A   Clear
4:35 PM 55.4 °F - 19.4 °F 25% 30.07 in 10.0 mi NNW 18.4 mph 24.2 mph N/A   Clear
4:55 PM 55.4 °F - 19.4 °F 25% 30.07 in 10.0 mi NNW 13.8 mph 27.6 mph N/A   Clear
5:15 PM 53.6 °F - 21.2 °F 28% 30.08 in 10.0 mi NNW 12.7 mph 17.3 mph N/A   Clear
5:35 PM 50.0 °F - 21.2 °F 32% 30.09 in 10.0 mi NNW 9.2 mph - N/A   Clear
5:55 PM 48.2 °F - 21.2 °F 34% 30.09 in 10.0 mi North 6.9 mph - N/A   Clear
6:15 PM 46.4 °F 42.9 °F 23.0 °F 40% 30.10 in 10.0 mi NNW 6.9 mph - N/A   Clear
6:35 PM 46.4 °F 41.5 °F 23.0 °F 40% 30.10 in 10.0 mi NNW 10.4 mph - N/A   Clear
6:55 PM 41.0 °F 34.7 °F 23.0 °F 49% 30.11 in 10.0 mi NW 10.4 mph - N/A   Clear
7:15 PM 39.2 °F 32.5 °F 23.0 °F 52% 30.11 in 10.0 mi NW 10.4 mph - N/A   Clear
7:35 PM 39.2 °F 32.5 °F 21.2 °F 49% 30.11 in 10.0 mi NW 10.4 mph - N/A   Clear
7:55 PM 37.4 °F 30.8 °F 21.2 °F 52% 30.11 in 10.0 mi WNW 9.2 mph - N/A   Clear
8:15 PM 35.6 °F 28.0 °F 21.2 °F 56% 30.11 in 10.0 mi NW 10.4 mph - N/A   Clear
8:35 PM 35.6 °F 29.2 °F 21.2 °F 56% 30.12 in 10.0 mi West 8.1 mph - N/A   Clear
8:55 PM 32.0 °F 24.8 °F 21.2 °F 64% 30.12 in 10.0 mi WNW 8.1 mph - N/A   Clear
9:15 PM 35.6 °F 29.2 °F 21.2 °F 56% 30.12 in 10.0 mi NW 8.1 mph - N/A   Clear
9:35 PM 35.6 °F 28.6 °F 21.2 °F 56% 30.12 in 10.0 mi WNW 9.2 mph - N/A   Clear
9:55 PM 35.6 °F 28.0 °F 21.2 °F 56% 30.13 in 10.0 mi West 10.4 mph - N/A   Clear
10:15 PM 32.0 °F 24.2 °F 21.2 °F 64% 30.12 in 10.0 mi WNW 9.2 mph - N/A   Clear
10:35 PM 32.0 °F 23.6 °F 21.2 °F 64% 30.12 in 10.0 mi WNW 10.4 mph - N/A   Clear
10:55 PM 35.6 °F 27.5 °F 21.2 °F 56% 30.12 in 10.0 mi WNW 11.5 mph - N/A   Clear
11:15 PM 35.6 °F 27.1 °F 21.2 °F 56% 30.12 in 10.0 mi WNW 12.7 mph - N/A   Clear
11:35 PM 35.6 °F 28.0 °F 21.2 °F 56% 30.12 in 10.0 mi WNW 10.4 mph - N/A   Clear
11:55 PM 33.8 °F 24.8 °F 21.2 °F 60% 30.12 in 10.0 mi NW 12.7 mph - N/A   Clear